Regional Weather Roundup
Issued by NWS

Home | Current Version | Previous Version | Graphics & Text | Print | Product List | Glossary On
Versions: 1 2 3 4 5 6 7 8 9 10 11 12 13 14 15 16 17 18 19 20 21 22 23 24 25 26 27
000
ASUS45 KBOU 070207
RWRCO

WEATHER ROUNDUP FOR COLORADO
NATIONAL WEATHER SERVICE DENVER/BOULDER CO
700 PM MST TUE DEC 06 2016

NOTE: "FAIR" INDICATES FEW OR NO CLOUDS BELOW 12000 FEET WITH NO
SIGNIFICANT WEATHER AND/OR OBSTRUCTIONS TO VISIBILITY.

COZ001>005-013-030-031-070300-
...NORTHWEST COLORADO...

CITY           SKY/WX    TMP DP  RH WIND       PRES   REMARKS
CRAIG          LGT SNOW  20  14  77 N5        29.75R WCI  13
HAYDEN         CLOUDY    19   9  63 W12       29.73R WCI   7
MEEKER         CLOUDY    23  12  62 NE17      29.70R WCI   9
MOUNT WERNER   NOT AVBL
STEAMBOAT SPGS CLOUDY    18  12  78 CALM      29.70R
WALDEN           N/A     12   9  85 NW12      29.65S WCI  -2
$$

COZ006>008-011-070300-
...WEST CENTRAL VALLEYS...

CITY           SKY/WX    TMP DP  RH WIND       PRES   REMARKS
GRAND JUNCTION MOCLDY    21  12  68 CALM      29.69F
MONTROSE       FAIR      24  14  65 CALM      29.69S
EAGLE          CLOUDY    25  14  63 CALM      29.69R
RIFLE          CLOUDY    26  14  60 SW3       29.70R
DELTA          NOT AVBL
NUCLA          FAIR      37  14  38 S12G18    29.71R
$$

COZ017>023-064>068-070300-
...SOUTHWEST COLORADO...

CITY           SKY/WX    TMP DP  RH WIND       PRES   REMARKS
DURANGO        FAIR      33  14  45 CALM      29.74S
CORTEZ         FAIR      29  20  69 E6        29.74R WCI  23
PAGOSA SPRINGS FAIR      32  17  52 CALM      29.76S
TELLURIDE      FAIR      29  10  45 SW15G23   29.73S WCI  18
WOLF CREEK PAS LGT SNOW  12  10  92 SW29G44   29.69R VSB 3/4 WCI  -9
$$

COZ009-010-012-014-032>034-037-058>063-070300-
...CENTRAL COLORADO...

CITY           SKY/WX    TMP DP  RH WIND       PRES   REMARKS
ASPEN          CLOUDY    26  22  84 S5        29.61S WCI  20
BUENA VISTA    CLOUDY    17  10  75 SE15      29.64R WCI   2
COPPER MTN     CLOUDY    14   9  79 MISG      29.55F
BERTHOUD PASS  SNOW       5  -6  61 W30       29.52F VSB 1/4 WCI -19
COTTONWOOD PAS CLOUDY    19  14  79 CALM      29.60F
GUNNISON       FAIR      22  14  71 CALM      29.65F
KREMMLING      LGT SNOW  21  16  79 CALM      29.67S
LEADVILLE      SNOW      17  13  84 SE5       29.57F VSB 1/2 WCI  10
MONARCH PASS   CLOUDY    12  10  92 SW33G46   29.68F WCI -10
SALIDA         CLOUDY    17  12  83 SE15G24   29.76S WCI   2
SUNLIGHT       CLOUDY    14   9  79 SW14G25   29.63S WCI  -1
WILKERSON PASS CLOUDY    10   7  85 SW9       29.60F WCI  -2
$$

COZ069>075-070300-
...SAN LUIS VALLEY/SANGRE DE CRISTO MOUNTAINS...

CITY           SKY/WX    TMP DP  RH WIND       PRES   REMARKS
ALAMOSA        FAIR      26  17  68 S10       29.70F WCI  16
LA VETA PASS   MOCLDY    21  14  73 NE21G37   29.67S WCI   6
SAGUACHE       FAIR      25  16  68 E8        29.67S WCI  16
$$

COZ035-036-038>040-070300-
...NORTHERN COLORADO FRONT RANGE...

CITY           SKY/WX    TMP DP  RH WIND       PRES   REMARKS
DENVER INTL AP CLOUDY    23  -2  33 SE10      29.82R WCI  12
DMNS CITY PARK   N/A     23   3  42 E5G16     29.83R WCI  16
AURORA         CLOUDY    20  -2  37 SE9       29.82S WCI  10
FRONT RANGE AP CLOUDY    25  -2  30 E14       29.83S WCI  13
ERIE MUNI ARPT LGT SNOW  23  18  81 SE6       29.85R WCI  15
BOULDER MUN AP LGT SNOW  23  21  93 CALM      29.83R
CENTENNIAL     CLOUDY    19  -1  41 SE13      29.79F WCI   6
BROOMFIELD     LGT SNOW  21  18  86 VRB5      29.83R VSB 1   WCI  15
FORT COLLINS   MOCLDY    23  10  58 SE15G21   29.87R WCI  10
LONGMONT       LGT SNOW  25  21  85 SE9       29.86S WCI  15
$$

COZ041-046-047-076>085-087-088-070300-
...PIKES PEAK/PALMER DIVIDE AND SOUTHERN FOOTHILLS...

CITY           SKY/WX    TMP DP  RH WIND       PRES   REMARKS
COLO. SPRINGS  CLOUDY    17  10  74 E7        29.80F WCI   8
A. F. ACADEMY  LGT SNOW  14  10  85 SE9       29.77F WCI   2
SCHRIEVER AFB  NOT AVBL
ELLICOTT       CLOUDY   N/A N/A N/A SE13        N/A
FALCON         LGT SNOW  14   9  83 CALM      29.78S
FORT CARSON    MOCLDY    20   0  41 SE6       29.80F WCI  12
LIMON          CLOUDY    17  -2  43 SE3       29.86S
MONUMENT HILL  FAIR      10   5  79 S9        29.76F WCI  -2
TRINIDAD       FAIR      20  -1  40 NE10      29.77F WCI   9
$$

COZ042>045-048>051-090-091-070300-
...NORTHEAST COLORADO...

CITY           SKY/WX    TMP DP  RH WIND       PRES   REMARKS
GREELEY ARPT   CLOUDY    25  -2  31 E8        29.91R WCI  16
AKRON          CLOUDY    23   5  46 NE6       29.91S WCI  16
BURLINGTON     CLOUDY    25  -2  31 SE8       29.95R WCI  16
WRAY           NOT AVBL
STERLING       CLOUDY    27   0  31 E7        29.94S WCI  19
HOLYOKE        FAIR      27   3  36 NE8       29.99R WCI  18
FORT MORGAN    CLOUDY    24  -8  24 SE5       29.92R WCI  18
$$

COZ086-089-092>099-070300-
...SOUTHEAST COLORADO...

CITY           SKY/WX    TMP DP  RH WIND       PRES   REMARKS
PUEBLO         MOCLDY    23   0  36 E7        29.84F WCI  15
LA JUNTA       FAIR      24   0  35 E15       29.82F WCI  11
LAMAR          FAIR      22   0  38 E9        29.91F WCI  12
SPRINGFIELD      N/A     20   2  45 SE13      29.89S WCI   7
$$




USA.gov is the U.S. government's official web portal to all federal, state and local government web resources and services.